Time,TemperatureF,DewpointF,PressureIn,WindDirection,WindDirectionDegrees,WindSpeedMPH,WindSpeedGustMPH,Humidity,HourlyPrecipIn,Conditions,Clouds,dailyrainin,SoftwareType,DateUTC
2014-12-22 00:12:00,43.0,41.0,29.66,SSE,151,1.0,-999.0,93,-99.99,,,-99.99,,2014-12-22 06:12:00,
2014-12-22 00:22:00,43.0,41.0,29.66,SSE,152,1.0,-999.0,93,-99.99,,,-99.99,,2014-12-22 06:22:00,
2014-12-22 00:42:00,43.0,41.0,29.65,SE,144,2.0,-999.0,92,-99.99,,,-99.99,,2014-12-22 06:42:00,
2014-12-22 00:52:00,43.0,41.0,29.63,SE,146,3.0,-999.0,92,-99.99,,,-99.99,,2014-12-22 06:52:00,
2014-12-22 01:12:00,43.0,41.0,29.63,SSE,166,2.0,-999.0,92,-99.99,,,-99.99,,2014-12-22 07:12:00,
2014-12-22 01:22:00,43.0,41.0,29.62,SE,146,3.0,-999.0,92,-99.99,,,-99.99,,2014-12-22 07:22:00,
2014-12-22 01:52:00,43.0,41.0,29.61,SSE,159,1.0,-999.0,92,-99.99,,,-99.99,,2014-12-22 07:52:00,
2014-12-22 02:22:00,43.0,41.0,29.59,SSE,155,2.0,-999.0,92,-99.99,,,-99.99,,2014-12-22 08:22:00,
2014-12-22 02:42:00,43.0,41.0,29.59,SSE,154,2.0,-999.0,92,-99.99,,,-99.99,,2014-12-22 08:42:00,
2014-12-22 02:52:00,43.0,41.0,29.58,SE,142,2.0,-999.0,92,-99.99,,,-99.99,,2014-12-22 08:52:00,
2014-12-22 03:12:00,43.0,41.0,29.58,SSE,147,2.0,-999.0,91,-99.99,,,-99.99,,2014-12-22 09:12:00,
2014-12-22 03:22:00,43.0,41.0,29.58,SE,142,3.0,-999.0,91,-99.99,,,-99.99,,2014-12-22 09:22:00,
2014-12-22 03:43:00,44.0,42.0,29.57,South,170,3.0,-999.0,91,-99.99,,,-99.99,,2014-12-22 09:43:00,
2014-12-22 03:54:00,44.0,42.0,29.56,SE,134,3.0,-999.0,91,-99.99,,,-99.99,,2014-12-22 09:54:00,
2014-12-22 04:12:00,44.0,42.0,29.55,SE,136,2.0,-999.0,91,-99.99,,,-99.99,,2014-12-22 10:12:00,
2014-12-22 04:23:00,44.0,42.0,29.55,SE,137,1.0,-999.0,91,-99.99,,,-99.99,,2014-12-22 10:23:00,
2014-12-22 04:43:00,44.0,42.0,29.54,SE,137,1.0,-999.0,91,-99.99,,,-99.99,,2014-12-22 10:43:00,
2014-12-22 04:53:00,44.0,42.0,29.53,SE,137,2.0,-999.0,91,-99.99,,,-99.99,,2014-12-22 10:53:00,
2014-12-22 05:12:00,44.0,42.0,29.52,SSE,150,2.0,-999.0,91,-99.99,,,-99.99,,2014-12-22 11:12:00,
2014-12-22 05:22:00,44.0,42.0,29.52,SSE,162,3.0,-999.0,91,-99.99,,,-99.99,,2014-12-22 11:22:00,
2014-12-22 05:43:00,44.0,42.0,29.52,SSE,150,3.0,-999.0,91,-99.99,,,-99.99,,2014-12-22 11:43:00,
2014-12-22 05:53:00,44.0,42.0,29.52,SSE,157,3.0,-999.0,91,-99.99,,,-99.99,,2014-12-22 11:53:00,
2014-12-22 06:12:00,44.0,42.0,29.51,SSE,150,2.0,-999.0,92,-99.99,,,-99.99,,2014-12-22 12:12:00,
2014-12-22 06:22:00,45.0,43.0,29.51,SSE,165,3.0,-999.0,92,-99.99,,,-99.99,,2014-12-22 12:22:00,
2014-12-22 06:42:00,45.0,43.0,29.52,SSE,162,3.0,-999.0,92,-99.99,,,-99.99,,2014-12-22 12:42:00,
2014-12-22 06:52:00,45.0,43.0,29.52,SSE,148,3.0,-999.0,92,-99.99,,,-99.99,,2014-12-22 12:52:00,
2014-12-22 07:22:00,45.0,43.0,29.51,SE,135,2.0,-999.0,93,-99.99,,,-99.99,,2014-12-22 13:22:00,
2014-12-22 07:42:00,45.0,43.0,29.50,SE,139,2.0,-999.0,93,-99.99,,,-99.99,,2014-12-22 13:42:00,
2014-12-22 07:52:00,45.0,43.0,29.50,SSE,158,2.0,-999.0,93,-99.99,,,-99.99,,2014-12-22 13:52:00,
2014-12-22 08:11:00,45.0,43.0,29.49,SSE,153,3.0,-999.0,92,-99.99,,,-99.99,,2014-12-22 14:11:00,
2014-12-22 08:22:00,46.0,44.0,29.49,SSE,164,2.0,-999.0,93,-99.99,,,-99.99,,2014-12-22 14:22:00,
2014-12-22 08:42:00,46.0,44.0,29.49,South,169,2.0,-999.0,92,-99.99,,,-99.99,,2014-12-22 14:42:00,
2014-12-22 08:52:00,46.0,44.0,29.49,South,178,3.0,-999.0,93,-99.99,,,-99.99,,2014-12-22 14:52:00,
2014-12-22 09:22:00,47.0,45.0,29.50,South,178,2.0,-999.0,93,-99.99,,,-99.99,,2014-12-22 15:22:00,
2014-12-22 09:44:00,47.0,45.0,29.49,SSE,157,2.0,-999.0,92,-99.99,,,-99.99,,2014-12-22 15:44:00,
2014-12-22 09:54:00,47.0,45.0,29.49,South,176,3.0,-999.0,92,-99.99,,,-99.99,,2014-12-22 15:54:00,
2014-12-22 10:23:00,48.0,46.0,29.49,SSW,194,4.0,-999.0,92,-99.99,,,-99.99,,2014-12-22 16:23:00,
2014-12-22 10:43:00,48.0,46.0,29.49,South,185,4.0,-999.0,92,-99.99,,,-99.99,,2014-12-22 16:43:00,
2014-12-22 10:53:00,48.0,45.0,29.48,SSW,194,5.0,-999.0,91,-99.99,,,-99.99,,2014-12-22 16:53:00,
2014-12-22 11:22:00,48.0,46.0,29.47,SSW,211,4.0,-999.0,92,-99.99,,,-99.99,,2014-12-22 17:22:00,
2014-12-22 11:42:00,48.0,45.0,29.47,South,187,3.0,-999.0,91,-99.99,,,-99.99,,2014-12-22 17:42:00,
2014-12-22 11:53:00,48.0,46.0,29.45,SSW,207,4.0,-999.0,92,-99.99,,,-99.99,,2014-12-22 17:53:00,